GALAXY 35

导读

GALAXY 35是由美国Maxar公司建造、Intelsat运营的地球同步通信卫星,于2022年12月13日,由欧空局阿里安-5火箭在法属圭亚那库鲁航天中心发射升空,同箭发射了Galaxy 36与MTG-I1气象卫星。它定轨地球同步轨道,主要服务北美地区,为广播公司提供传输链路,支持体育赛事直播、娱乐节目与突发新闻报道,接替退役的Galaxy 3C老卫星,保障北美地区稳定的媒体通信服务。

基本信息
目录编号:
54741
目录名称:
GALAXY 35
国际标识:
2022-170A
轨道中心:
EARTH
卫星名称:
GALAXY 35
卫星全名:
--
卫星状态:
在轨 (已飞行1323 天)
发射日期:
2022-12-13 UTC
国别 :
美国 (US)
星等 :
--
轨道信息
数据来源 国际轨道数据 AOE轨道数据
星历时间 2026-07-27T20:20:57+0800
13小时前
查看轨道信息
2026-07-27T12:00:00+0800
21小时前
查看轨道信息
半长轴 42165.625km 42165.121km
偏心率 0.0002163 0.0002033
轨道倾角 0.026° 0.025°
近地点辐角 41.603° 42.386°
升交点赤经 85.459° 82.689°
平近点角 270.259° 146.661°
近地点 35778.367km 35778.411km
远地点 35796.609km 35795.557km
周期 1436.143分钟 1436.117分钟
每日圈数 1.002686 1.002704
详细信息
使用方式:
暂无
2D轨道图
3D轨道图
轨道高度分析图
轨道倾角分析图
轨道综合分析图
查看轨道综合分析图